Location: Unspecified
(54.1780°N, 0.0000°E)
Time: 00:30:32
(UTC+00:00)

Tiros 1 - Pass Details

Date: 21 June 2019
Orbit: 630 x 664 km, 48.4° (Epoch: 19 July)

Event Time Altitude Azimuth Distance (km) Brightness Sun altitude
Rises 04:02:33 0° 270° (W) 2,930 10.0 3.2°
Reaches altitude 10° 04:05:04 10° 260° (W) 2,017 9.2 3.5°
Maximum altitude 04:09:09 32° 198° (SSW) 1,097 8.0 4.0°
Drops below altitude 10° 04:13:14 10° 136° (SE) 2,005 9.8 4.5°
Sets 04:15:43 0° 126° (SE) 2,911 10.8 4.8°
